Time,TemperatureF,DewpointF,PressureIn,WindDirection,WindDirectionDegrees,WindSpeedMPH,WindSpeedGustMPH,Humidity,HourlyPrecipIn,Conditions,Clouds,dailyrainin,SolarRadiationWatts/m^2,SoftwareType,DateUTC
2013-04-23 00:01:00,45.3,37.5,30.36,NE,47,5.0,5.0,74,0.00,,,0.00,0,Wunderground v.1.15,2013-04-23 04:01:00,
2013-04-23 00:02:00,45.3,37.8,30.36,East,93,5.0,5.0,75,0.00,,,0.00,0,Wunderground v.1.15,2013-04-23 04:02:00,
2013-04-23 00:04:00,45.2,37.7,30.36,ENE,60,4.0,5.0,75,0.00,,,0.00,0,Wunderground v.1.15,2013-04-23 04:04:00,
2013-04-23 00:08:00,45.1,37.6,30.36,ENE,70,4.0,5.0,75,0.00,,,0.00,0,Wunderground v.1.15,2013-04-23 04:08:00,
2013-04-23 00:11:00,45.0,37.6,30.36,East,81,5.0,9.0,75,0.00,,,0.00,0,Wunderground v.1.15,2013-04-23 04:11:00,
2013-04-23 00:16:00,44.8,37.7,30.36,ESE,109,6.0,9.0,76,0.00,,,0.00,0,Wunderground v.1.15,2013-04-23 04:16:00,
2013-04-23 00:21:00,44.6,37.8,30.36,East,80,4.0,5.0,77,0.00,,,0.00,0,Wunderground v.1.15,2013-04-23 04:21:00,
2013-04-23 00:26:00,44.3,37.5,30.36,NE,53,3.0,5.0,77,0.00,,,0.00,0,Wunderground v.1.15,2013-04-23 04:26:00,
2013-04-23 00:32:00,44.1,37.7,30.36,East,90,3.0,5.0,78,0.00,,,0.00,0,Wunderground v.1.15,2013-04-23 04:32:00,
2013-04-23 00:37:00,43.8,37.7,30.36,NE,51,3.0,5.0,79,0.00,,,0.00,0,Wunderground v.1.15,2013-04-23 04:37:00,
2013-04-23 00:42:00,43.5,37.4,30.36,ENE,63,3.0,4.0,79,0.00,,,0.00,0,Wunderground v.1.15,2013-04-23 04:42:00,
2013-04-23 00:47:00,43.2,37.4,30.36,NE,46,3.0,4.0,80,0.00,,,0.00,0,Wunderground v.1.15,2013-04-23 04:47:00,
2013-04-23 00:53:00,42.8,37.1,30.36,ENE,63,3.0,4.0,80,0.00,,,0.00,0,Wunderground v.1.15,2013-04-23 04:53:00,
2013-04-23 00:58:00,42.5,37.1,30.35,ENE,70,3.0,4.0,81,0.00,,,0.00,0,Wunderground v.1.15,2013-04-23 04:58:00,
2013-04-23 01:04:00,42.2,37.1,30.35,NE,41,4.0,6.0,82,0.00,,,0.00,0,Wunderground v.1.15,2013-04-23 05:04:00,
2013-04-23 01:10:00,42.0,37.2,30.35,NNE,30,4.0,4.0,83,0.00,,,0.00,0,Wunderground v.1.15,2013-04-23 05:10:00,
2013-04-23 01:15:00,41.8,37.3,30.35,NE,42,3.0,5.0,84,0.00,,,0.00,0,Wunderground v.1.15,2013-04-23 05:15:00,
2013-04-23 01:20:00,41.6,37.1,30.35,NE,43,3.0,5.0,84,0.00,,,0.00,0,Wunderground v.1.15,2013-04-23 05:20:00,
2013-04-23 01:25:00,41.3,37.1,30.35,NNE,25,3.0,5.0,85,0.00,,,0.00,0,Wunderground v.1.15,2013-04-23 05:25:00,
2013-04-23 01:31:00,41.0,36.8,30.35,NNE,24,4.0,4.0,85,0.00,,,0.00,0,Wunderground v.1.15,2013-04-23 05:31:00,
2013-04-23 01:36:00,40.8,36.9,30.35,NE,34,4.0,6.0,86,0.00,,,0.00,0,Wunderground v.1.15,2013-04-23 05:36:00,
2013-04-23 01:41:00,40.6,36.7,30.34,NE,43,4.0,5.0,86,0.00,,,0.00,0,Wunderground v.1.15,2013-04-23 05:41:00,
2013-04-23 01:46:00,40.5,36.6,30.34,ENE,65,4.0,5.0,86,0.00,,,0.00,0,Wunderground v.1.15,2013-04-23 05:46:00,
2013-04-23 01:52:00,40.4,36.8,30.34,NE,38,3.0,3.0,87,0.00,,,0.00,0,Wunderground v.1.15,2013-04-23 05:52:00,
2013-04-23 01:57:00,40.4,36.8,30.34,NE,52,3.0,5.0,87,0.00,,,0.00,0,Wunderground v.1.15,2013-04-23 05:57:00,
2013-04-23 02:02:00,40.4,36.8,30.34,NE,40,3.0,5.0,87,0.00,,,0.00,0,Wunderground v.1.15,2013-04-23 06:02:00,
2013-04-23 02:07:00,40.3,36.7,30.34,NE,44,3.0,5.0,87,0.00,,,0.00,0,Wunderground v.1.15,2013-04-23 06:07:00,
2013-04-23 02:13:00,40.2,36.6,30.34,NNE,24,3.0,5.0,87,0.00,,,0.00,0,Wunderground v.1.15,2013-04-23 06:13:00,
2013-04-23 02:18:00,40.1,36.8,30.34,NE,35,2.0,5.0,88,0.00,,,0.00,0,Wunderground v.1.15,2013-04-23 06:18:00,
2013-04-23 02:23:00,39.9,36.6,30.33,NE,34,2.0,4.0,88,0.00,,,0.00,0,Wunderground v.1.15,2013-04-23 06:23:00,
2013-04-23 02:29:00,39.6,36.6,30.33,NE,38,2.0,4.0,89,0.00,,,0.00,0,Wunderground v.1.15,2013-04-23 06:29:00,
2013-04-23 02:34:00,39.3,36.3,30.33,NE,46,1.0,3.0,89,0.00,,,0.00,0,Wunderground v.1.15,2013-04-23 06:34:00,
2013-04-23 02:39:00,39.1,36.4,30.33,NE,48,1.0,3.0,90,0.00,,,0.00,0,Wunderground v.1.15,2013-04-23 06:39:00,
2013-04-23 02:44:00,38.9,36.2,30.33,NE,51,1.0,2.0,90,0.00,,,0.00,0,Wunderground v.1.15,2013-04-23 06:44:00,
2013-04-23 02:49:00,38.7,36.0,30.33,NE,51,2.0,5.0,90,0.00,,,0.00,0,Wunderground v.1.15,2013-04-23 06:49:00,
2013-04-23 02:55:00,38.5,36.1,30.32,NE,49,2.0,2.0,91,0.00,,,0.00,0,Wunderground v.1.15,2013-04-23 06:55:00,
2013-04-23 03:00:00,38.3,35.9,30.32,NE,51,1.0,1.0,91,0.00,,,0.00,0,Wunderground v.1.15,2013-04-23 07:00:00,
2013-04-23 03:06:00,38.1,36.0,30.32,NE,51,1.0,2.0,92,0.00,,,0.00,0,Wunderground v.1.15,2013-04-23 07:06:00,
2013-04-23 03:11:00,37.9,35.8,30.32,NNW,337,2.0,2.0,92,0.00,,,0.00,0,Wunderground v.1.15,2013-04-23 07:11:00,
2013-04-23 03:16:00,37.7,35.6,30.32,NNW,336,1.0,2.0,92,0.00,,,0.00,0,Wunderground v.1.15,2013-04-23 07:16:00,
2013-04-23 03:21:00,37.5,35.7,30.32,NNW,336,0.0,0.0,93,0.00,,,0.00,0,Wunderground v.1.15,2013-04-23 07:21:00,
2013-04-23 03:26:00,37.2,35.4,30.32,NNW,336,0.0,0.0,93,0.00,,,0.00,0,Wunderground v.1.15,2013-04-23 07:26:00,
2013-04-23 03:31:00,36.9,35.1,30.32,NNW,336,0.0,0.0,93,0.00,,,0.00,0,Wunderground v.1.15,2013-04-23 07:31:00,
2013-04-23 03:37:00,36.5,34.9,30.32,NNW,337,0.0,0.0,94,0.00,,,0.00,0,Wunderground v.1.15,2013-04-23 07:37:00,
2013-04-23 03:42:00,36.3,34.7,30.32,NNW,336,0.0,0.0,94,0.00,,,0.00,0,Wunderground v.1.15,2013-04-23 07:42:00,
2013-04-23 03:47:00,36.1,34.5,30.32,NNW,333,1.0,2.0,94,0.00,,,0.00,0,Wunderground v.1.15,2013-04-23 07:47:00,
2013-04-23 03:52:00,36.0,34.7,30.32,NNW,333,0.0,1.0,95,0.00,,,0.00,0,Wunderground v.1.15,2013-04-23 07:52:00,
2013-04-23 03:58:00,35.8,34.5,30.32,NNW,334,0.0,1.0,95,0.00,,,0.00,0,Wunderground v.1.15,2013-04-23 07:58:00,
2013-04-23 04:04:00,35.8,34.5,30.32,NNW,333,1.0,3.0,95,0.00,,,0.00,0,Wunderground v.1.15,2013-04-23 08:04:00,
2013-04-23 04:09:00,35.8,34.5,30.32,NNW,334,2.0,3.0,95,0.00,,,0.00,0,Wunderground v.1.15,2013-04-23 08:09:00,
2013-04-23 04:14:00,35.7,34.4,30.32,NNW,333,1.0,3.0,95,0.00,,,0.00,0,Wunderground v.1.15,2013-04-23 08:14:00,
2013-04-23 04:19:00,35.8,34.5,30.32,West,281,2.0,3.0,95,0.00,,,0.00,0,Wunderground v.1.15,2013-04-23 08:19:00,
2013-04-23 04:24:00,35.8,34.2,30.32,West,277,2.0,2.0,94,0.00,,,0.00,0,Wunderground v.1.15,2013-04-23 08:24:00,
2013-04-23 04:30:00,35.7,34.1,30.32,West,278,2.0,2.0,94,0.00,,,0.00,0,Wunderground v.1.15,2013-04-23 08:30:00,
2013-04-23 04:35:00,35.7,34.1,30.32,West,275,3.0,4.0,94,0.00,,,0.00,0,Wunderground v.1.15,2013-04-23 08:35:00,
2013-04-23 04:40:00,35.7,34.4,30.32,West,276,2.0,2.0,95,0.00,,,0.00,0,Wunderground v.1.15,2013-04-23 08:40:00,
2013-04-23 04:46:00,35.7,34.1,30.32,West,276,3.0,3.0,94,0.00,,,0.00,0,Wunderground v.1.15,2013-04-23 08:46:00,
2013-04-23 04:51:00,35.7,34.1,30.31,WSW,249,3.0,3.0,94,0.00,,,0.00,0,Wunderground v.1.15,2013-04-23 08:51:00,
2013-04-23 04:56:00,35.7,34.1,30.31,WSW,252,3.0,4.0,94,0.00,,,0.00,0,Wunderground v.1.15,2013-04-23 08:56:00,
2013-04-23 05:02:00,35.7,34.1,30.31,WSW,252,3.0,3.0,94,0.00,,,0.00,0,Wunderground v.1.15,2013-04-23 09:02:00,
2013-04-23 05:07:00,35.7,34.1,30.32,WSW,251,3.0,3.0,94,0.00,,,0.00,0,Wunderground v.1.15,2013-04-23 09:07:00,
2013-04-23 05:13:00,35.6,34.0,30.31,WSW,252,3.0,4.0,94,0.00,,,0.00,0,Wunderground v.1.15,2013-04-23 09:13:00,
2013-04-23 05:18:00,35.5,33.9,30.31,WSW,252,3.0,4.0,94,0.00,,,0.00,0,Wunderground v.1.15,2013-04-23 09:18:00,
2013-04-23 05:23:00,35.3,33.7,30.31,WSW,250,3.0,3.0,94,0.00,,,0.00,0,Wunderground v.1.15,2013-04-23 09:23:00,
2013-04-23 05:28:00,35.2,33.6,30.31,WSW,252,2.0,4.0,94,0.00,,,0.00,0,Wunderground v.1.15,2013-04-23 09:28:00,
2013-04-23 05:33:00,35.1,33.5,30.31,WSW,252,3.0,3.0,94,0.00,,,0.00,0,Wunderground v.1.15,2013-04-23 09:33:00,
2013-04-23 05:39:00,35.1,33.5,30.31,WSW,250,3.0,4.0,94,0.00,,,0.00,0,Wunderground v.1.15,2013-04-23 09:39:00,
2013-04-23 05:44:00,35.0,33.7,30.31,WSW,252,2.0,3.0,95,0.00,,,0.00,0,Wunderground v.1.15,2013-04-23 09:44:00,
2013-04-23 05:49:00,35.0,33.7,30.31,WSW,254,2.0,3.0,95,0.00,,,0.00,0,Wunderground v.1.15,2013-04-23 09:49:00,
2013-04-23 05:54:00,35.0,33.7,30.31,WSW,251,2.0,2.0,95,0.00,,,0.00,0,Wunderground v.1.15,2013-04-23 09:54:00,
2013-04-23 06:00:00,35.0,33.7,30.31,WSW,252,2.0,2.0,95,0.00,,,0.00,0,Wunderground v.1.15,2013-04-23 10:00:00,
2013-04-23 06:06:00,35.0,33.7,30.31,WSW,252,2.0,4.0,95,0.00,,,0.00,0,Wunderground v.1.15,2013-04-23 10:06:00,
2013-04-23 06:12:00,35.0,33.4,30.31,WSW,251,3.0,4.0,94,0.00,,,0.00,0,Wunderground v.1.15,2013-04-23 10:12:00,
2013-04-23 06:17:00,35.0,33.7,30.31,WSW,247,3.0,4.0,95,0.00,,,0.00,0,Wunderground v.1.15,2013-04-23 10:17:00,
2013-04-23 06:22:00,34.9,33.3,30.31,WSW,248,2.0,4.0,94,0.00,,,0.00,0,Wunderground v.1.15,2013-04-23 10:22:00,
2013-04-23 06:27:00,34.7,33.2,30.31,SW,229,4.0,5.0,94,0.00,,,0.00,5,Wunderground v.1.15,2013-04-23 10:27:00,
2013-04-23 06:33:00,34.6,33.1,30.31,SW,230,4.0,4.0,94,0.00,,,0.00,9,Wunderground v.1.15,2013-04-23 10:33:00,
2013-04-23 06:38:00,34.5,33.2,30.31,SW,228,3.0,5.0,95,0.00,,,0.00,12,Wunderground v.1.15,2013-04-23 10:38:00,
2013-04-23 06:43:00,34.5,33.2,30.31,North,360,3.0,4.0,95,0.00,,,0.00,18,Wunderground v.1.15,2013-04-23 10:43:00,
2013-04-23 06:48:00,34.5,33.2,30.31,SW,228,2.0,4.0,95,0.00,,,0.00,23,Wunderground v.1.15,2013-04-23 10:48:00,
2013-04-23 06:53:00,34.7,33.4,30.31,SW,230,2.0,4.0,95,0.00,,,0.00,37,Wunderground v.1.15,2013-04-23 10:53:00,
2013-04-23 06:58:00,34.8,33.5,30.31,North,360,3.0,4.0,95,0.00,,,0.00,47,Wunderground v.1.15,2013-04-23 10:58:00,
2013-04-23 07:04:00,35.1,34.1,30.31,SW,226,2.0,3.0,96,0.00,,,0.00,60,Wunderground v.1.15,2013-04-23 11:04:00,
2013-04-23 07:09:00,35.3,34.0,30.31,SW,229,2.0,3.0,95,0.00,,,0.00,74,Wunderground v.1.15,2013-04-23 11:09:00,
2013-04-23 07:15:00,35.8,34.5,30.31,SW,225,1.0,3.0,95,0.00,,,0.00,93,Wunderground v.1.15,2013-04-23 11:15:00,
2013-04-23 07:20:00,36.2,34.6,30.31,SW,230,0.0,0.0,94,0.00,,,0.00,104,Wunderground v.1.15,2013-04-23 11:20:00,
2013-04-23 07:25:00,36.6,35.0,30.31,SW,228,1.0,4.0,94,0.00,,,0.00,98,Wunderground v.1.15,2013-04-23 11:25:00,
2013-04-23 07:31:00,37.0,35.2,30.31,SW,227,1.0,1.0,93,0.00,,,0.00,97,Wunderground v.1.15,2013-04-23 11:31:00,
2013-04-23 07:36:00,37.3,35.2,30.31,SW,225,1.0,1.0,92,0.00,,,0.00,88,Wunderground v.1.15,2013-04-23 11:36:00,
2013-04-23 07:41:00,37.7,35.6,30.31,SW,230,1.0,2.0,92,0.00,,,0.00,84,Wunderground v.1.15,2013-04-23 11:41:00,
2013-04-23 07:46:00,38.0,35.9,30.31,SW,228,0.0,2.0,92,0.00,,,0.00,120,Wunderground v.1.15,2013-04-23 11:46:00,
2013-04-23 07:51:00,38.2,36.1,30.31,North,360,0.0,0.0,92,0.00,,,0.00,132,Wunderground v.1.15,2013-04-23 11:51:00,
2013-04-23 07:56:00,38.4,36.3,30.31,SW,229,0.0,0.0,92,0.00,,,0.00,186,Wunderground v.1.15,2013-04-23 11:56:00,
2013-04-23 08:02:00,38.6,36.5,30.31,SW,228,0.0,0.0,92,0.00,,,0.00,267,Wunderground v.1.15,2013-04-23 12:02:00,
2013-04-23 08:07:00,38.8,36.7,30.31,SW,227,0.0,0.0,92,0.00,,,0.00,285,Wunderground v.1.15,2013-04-23 12:07:00,
2013-04-23 08:12:00,38.9,36.5,30.30,SW,229,0.0,0.0,91,0.00,,,0.00,302,Wunderground v.1.15,2013-04-23 12:12:00,
2013-04-23 08:18:00,39.1,37.0,30.30,North,360,0.0,0.0,92,0.00,,,0.00,323,Wunderground v.1.15,2013-04-23 12:18:00,
2013-04-23 08:23:00,39.7,37.6,30.30,SW,228,0.0,0.0,92,0.00,,,0.00,322,Wunderground v.1.15,2013-04-23 12:23:00,
2013-04-23 08:28:00,40.4,38.0,30.31,SW,228,0.0,1.0,91,0.00,,,0.00,360,Wunderground v.1.15,2013-04-23 12:28:00,
2013-04-23 08:33:00,41.1,38.1,30.30,SW,229,0.0,2.0,89,0.00,,,0.00,378,Wunderground v.1.15,2013-04-23 12:33:00,
2013-04-23 08:38:00,41.7,38.1,30.30,ENE,67,2.0,5.0,87,0.00,,,0.00,392,Wunderground v.1.15,2013-04-23 12:38:00,
2013-04-23 08:43:00,42.1,38.2,30.29,ENE,64,2.0,2.0,86,0.00,,,0.00,410,Wunderground v.1.15,2013-04-23 12:43:00,
2013-04-23 08:49:00,42.6,38.1,30.30,NNE,32,1.0,4.0,84,0.00,,,0.00,429,Wunderground v.1.15,2013-04-23 12:49:00,
2013-04-23 08:54:00,42.9,37.8,30.30,NNE,30,1.0,2.0,82,0.00,,,0.00,445,Wunderground v.1.15,2013-04-23 12:54:00,
2013-04-23 08:59:00,43.4,38.6,30.29,NE,40,1.0,2.0,83,0.00,,,0.00,466,Wunderground v.1.15,2013-04-23 12:59:00,
2013-04-23 09:05:00,43.8,38.7,30.28,ENE,67,2.0,4.0,82,0.00,,,0.00,485,Wunderground v.1.15,2013-04-23 13:05:00,
2013-04-23 09:10:00,44.0,38.9,30.28,ENE,66,3.0,3.0,82,0.00,,,0.00,503,Wunderground v.1.15,2013-04-23 13:10:00,
2013-04-23 09:15:00,44.3,38.5,30.28,North,360,3.0,4.0,80,0.00,,,0.00,519,Wunderground v.1.15,2013-04-23 13:15:00,
2013-04-23 09:20:00,44.6,39.1,30.27,ENE,74,3.0,4.0,81,0.00,,,0.00,538,Wunderground v.1.15,2013-04-23 13:20:00,
2013-04-23 09:25:00,44.5,39.3,30.27,ESE,119,2.0,4.0,82,0.00,,,0.00,552,Wunderground v.1.15,2013-04-23 13:25:00,
2013-04-23 09:30:00,44.8,38.7,30.27,NNW,346,1.0,1.0,79,0.00,,,0.00,566,Wunderground v.1.15,2013-04-23 13:30:00,
2013-04-23 09:35:00,45.2,40.3,30.26,East,90,1.0,5.0,83,0.00,,,0.00,587,Wunderground v.1.15,2013-04-23 13:35:00,
2013-04-23 09:41:00,45.6,39.5,30.26,East,88,1.0,2.0,79,0.00,,,0.00,603,Wunderground v.1.15,2013-04-23 13:41:00,
2013-04-23 09:46:00,45.9,39.4,30.26,East,86,0.0,2.0,78,0.00,,,0.00,621,Wunderground v.1.15,2013-04-23 13:46:00,
2013-04-23 09:51:00,46.7,41.2,30.26,SSE,163,1.0,3.0,81,0.00,,,0.00,631,Wunderground v.1.15,2013-04-23 13:51:00,
2013-04-23 09:57:00,47.8,40.9,30.26,North,360,1.0,4.0,77,0.00,,,0.00,652,Wunderground v.1.15,2013-04-23 13:57:00,
2013-04-23 10:03:00,48.3,40.7,30.25,NNE,23,2.0,4.0,75,0.00,,,0.00,664,Wunderground v.1.15,2013-04-23 14:03:00,
2013-04-23 10:08:00,48.1,40.5,30.25,NE,44,2.0,5.0,75,0.00,,,0.00,680,Wunderground v.1.15,2013-04-23 14:08:00,
2013-04-23 10:13:00,48.2,40.3,30.25,SE,140,2.0,2.0,74,0.00,,,0.00,694,Wunderground v.1.15,2013-04-23 14:13:00,
2013-04-23 10:19:00,48.6,40.7,30.24,SSE,155,1.0,2.0,74,0.00,,,0.00,712,Wunderground v.1.15,2013-04-23 14:19:00,
2013-04-23 10:24:00,49.2,41.3,30.24,East,86,2.0,6.0,74,0.00,,,0.00,721,Wunderground v.1.15,2013-04-23 14:24:00,
2013-04-23 10:30:00,48.8,40.5,30.25,East,81,3.0,3.0,73,0.00,,,0.00,737,Wunderground v.1.15,2013-04-23 14:30:00,
2013-04-23 10:35:00,48.6,40.3,30.24,ENE,78,2.0,3.0,73,0.00,,,0.00,747,Wunderground v.1.15,2013-04-23 14:35:00,
2013-04-23 10:40:00,48.9,40.6,30.24,East,80,1.0,1.0,73,0.00,,,0.00,759,Wunderground v.1.15,2013-04-23 14:40:00,
2013-04-23 10:45:00,49.1,40.5,30.25,West,271,2.0,3.0,72,0.00,,,0.00,773,Wunderground v.1.15,2013-04-23 14:45:00,
2013-04-23 10:51:00,49.7,41.7,30.25,SW,229,2.0,2.0,74,0.00,,,0.00,784,Wunderground v.1.15,2013-04-23 14:51:00,
2013-04-23 10:56:00,50.4,41.3,30.25,ENE,76,2.0,4.0,71,0.00,,,0.00,795,Wunderground v.1.15,2013-04-23 14:56:00,
2013-04-23 11:02:00,51.1,41.3,30.24,ESE,106,2.0,2.0,69,0.00,,,0.00,807,Wunderground v.1.15,2013-04-23 15:02:00,
2013-04-23 11:07:00,51.5,43.1,30.24,South,184,2.0,2.0,73,0.00,,,0.00,817,Wunderground v.1.15,2013-04-23 15:07:00,
2013-04-23 11:12:00,52.3,43.5,30.24,South,186,1.0,1.0,72,0.00,,,0.00,828,Wunderground v.1.15,2013-04-23 15:12:00,
2013-04-23 11:17:00,52.8,42.1,30.24,ENE,74,1.0,3.0,67,0.00,,,0.00,838,Wunderground v.1.15,2013-04-23 15:17:00,
2013-04-23 11:22:00,52.3,43.2,30.23,ESE,103,2.0,5.0,71,0.00,,,0.00,846,Wunderground v.1.15,2013-04-23 15:22:00,
2013-04-23 11:28:00,52.0,42.1,30.23,East,81,3.0,5.0,69,0.00,,,0.00,851,Wunderground v.1.15,2013-04-23 15:28:00,
2013-04-23 11:33:00,52.3,42.4,30.23,ENE,72,2.0,3.0,69,0.00,,,0.00,860,Wunderground v.1.15,2013-04-23 15:33:00,
2013-04-23 11:39:00,52.7,42.4,30.23,ENE,70,1.0,3.0,68,0.00,,,0.00,868,Wunderground v.1.15,2013-04-23 15:39:00,
2013-04-23 11:44:00,53.2,44.0,30.22,East,81,1.0,5.0,71,0.00,,,0.00,874,Wunderground v.1.15,2013-04-23 15:44:00,
2013-04-23 11:49:00,53.5,43.2,30.22,ENE,68,2.0,7.0,68,0.00,,,0.00,882,Wunderground v.1.15,2013-04-23 15:49:00,
2013-04-23 11:54:00,53.7,42.2,30.22,ENE,67,2.0,3.0,65,0.00,,,0.00,888,Wunderground v.1.15,2013-04-23 15:54:00,
2013-04-23 12:00:00,54.5,44.9,30.22,ESE,110,1.0,1.0,70,0.00,,,0.00,896,Wunderground v.1.15,2013-04-23 16:00:00,
2013-04-23 12:06:00,55.2,44.0,30.23,East,82,1.0,3.0,66,0.00,,,0.00,900,Wunderground v.1.15,2013-04-23 16:06:00,
2013-04-23 12:11:00,55.2,43.6,30.22,SE,130,2.0,2.0,65,0.00,,,0.00,907,Wunderground v.1.15,2013-04-23 16:11:00,
2013-04-23 12:16:00,55.6,43.6,30.23,ESE,108,2.0,4.0,64,0.00,,,0.00,912,Wunderground v.1.15,2013-04-23 16:16:00,
2013-04-23 12:21:00,56.1,44.9,30.23,East,83,2.0,2.0,66,0.00,,,0.00,914,Wunderground v.1.15,2013-04-23 16:21:00,
2013-04-23 12:26:00,56.6,45.4,30.22,ENE,70,3.0,5.0,66,0.00,,,0.00,916,Wunderground v.1.15,2013-04-23 16:26:00,
2013-04-23 12:31:00,57.1,45.8,30.22,NE,55,3.0,3.0,66,0.00,,,0.00,918,Wunderground v.1.15,2013-04-23 16:31:00,
2013-04-23 12:37:00,57.3,44.8,30.21,East,80,4.0,4.0,63,0.00,,,0.00,925,Wunderground v.1.15,2013-04-23 16:37:00,
2013-04-23 12:42:00,57.9,45.0,30.21,East,85,3.0,5.0,62,0.00,,,0.00,925,Wunderground v.1.15,2013-04-23 16:42:00,
2013-04-23 12:47:00,58.1,45.6,30.20,East,86,3.0,5.0,63,0.00,,,0.00,926,Wunderground v.1.15,2013-04-23 16:47:00,
2013-04-23 12:52:00,58.6,44.3,30.20,SSE,159,2.0,3.0,59,0.00,,,0.00,932,Wunderground v.1.15,2013-04-23 16:52:00,
2013-04-23 12:57:00,59.4,47.2,30.20,NE,51,1.0,3.0,64,0.00,,,0.00,926,Wunderground v.1.15,2013-04-23 16:57:00,
2013-04-23 13:03:00,59.6,45.7,30.20,NNW,338,1.0,3.0,60,0.00,,,0.00,928,Wunderground v.1.15,2013-04-23 17:03:00,
2013-04-23 13:08:00,59.5,45.2,30.19,North,360,2.0,5.0,59,0.00,,,0.00,928,Wunderground v.1.15,2013-04-23 17:08:00,
2013-04-23 13:13:00,60.1,45.7,30.19,ENE,58,3.0,5.0,59,0.00,,,0.00,928,Wunderground v.1.15,2013-04-23 17:13:00,
2013-04-23 13:18:00,59.8,44.5,30.19,ENE,59,3.0,5.0,57,0.00,,,0.00,930,Wunderground v.1.15,2013-04-23 17:18:00,
2013-04-23 13:24:00,60.0,46.1,30.18,East,84,3.0,5.0,60,0.00,,,0.00,926,Wunderground v.1.15,2013-04-23 17:24:00,
2013-04-23 13:29:00,60.3,44.5,30.17,NE,38,4.0,7.0,56,0.00,,,0.00,925,Wunderground v.1.15,2013-04-23 17:29:00,
2013-04-23 13:34:00,60.7,44.9,30.17,NE,40,3.0,4.0,56,0.00,,,0.00,923,Wunderground v.1.15,2013-04-23 17:34:00,
2013-04-23 13:39:00,61.3,45.9,30.17,ENE,63,3.0,7.0,57,0.00,,,0.00,923,Wunderground v.1.15,2013-04-23 17:39:00,
2013-04-23 13:44:00,61.7,46.3,30.17,North,5,3.0,4.0,57,0.00,,,0.00,905,Wunderground v.1.15,2013-04-23 17:44:00,
2013-04-23 13:49:00,62.0,46.1,30.17,ENE,71,3.0,4.0,56,0.00,,,0.00,916,Wunderground v.1.15,2013-04-23 17:49:00,
2013-04-23 13:54:00,62.7,47.7,30.16,NNE,12,3.0,7.0,58,0.00,,,0.00,912,Wunderground v.1.15,2013-04-23 17:54:00,
2013-04-23 13:59:00,63.5,48.0,30.16,East,92,4.0,8.0,57,0.00,,,0.00,907,Wunderground v.1.15,2013-04-23 17:59:00,
2013-04-23 14:05:00,63.6,46.1,30.16,ENE,73,4.0,8.0,53,0.00,,,0.00,183,Wunderground v.1.15,2013-04-23 18:05:00,
2013-04-23 14:11:00,63.3,46.9,30.15,NE,51,5.0,8.0,55,0.00,,,0.00,846,Wunderground v.1.15,2013-04-23 18:11:00,
2013-04-23 14:16:00,63.2,46.8,30.15,ENE,60,6.0,8.0,55,0.00,,,0.00,889,Wunderground v.1.15,2013-04-23 18:16:00,
2013-04-23 14:21:00,63.4,46.5,30.15,ENE,59,5.0,7.0,54,0.00,,,0.00,886,Wunderground v.1.15,2013-04-23 18:21:00,
2013-04-23 14:26:00,63.6,47.6,30.15,ESE,115,5.0,9.0,56,0.00,,,0.00,875,Wunderground v.1.15,2013-04-23 18:26:00,
2013-04-23 14:31:00,64.3,47.3,30.15,East,80,6.0,7.0,54,0.00,,,0.00,870,Wunderground v.1.15,2013-04-23 18:31:00,
2013-04-23 14:37:00,64.4,45.3,30.14,NW,309,4.0,7.0,50,0.00,,,0.00,858,Wunderground v.1.15,2013-04-23 18:37:00,
2013-04-23 14:42:00,64.7,49.6,30.14,East,90,3.0,8.0,58,0.00,,,0.00,847,Wunderground v.1.15,2013-04-23 18:42:00,
2013-04-23 14:47:00,64.8,46.2,30.13,ENE,71,5.0,8.0,51,0.00,,,0.00,844,Wunderground v.1.15,2013-04-23 18:47:00,
2013-04-23 14:52:00,65.0,46.4,30.13,ENE,59,5.0,10.0,51,0.00,,,0.00,831,Wunderground v.1.15,2013-04-23 18:52:00,
2013-04-23 14:58:00,65.1,45.5,30.13,ENE,73,6.0,10.0,49,0.00,,,0.00,823,Wunderground v.1.15,2013-04-23 18:58:00,
2013-04-23 15:04:00,64.9,45.8,30.12,NE,51,5.0,9.0,50,0.00,,,0.00,810,Wunderground v.1.15,2013-04-23 19:04:00,
2013-04-23 15:09:00,65.1,46.5,30.12,ENE,70,5.0,10.0,51,0.00,,,0.00,800,Wunderground v.1.15,2013-04-23 19:09:00,
2013-04-23 15:14:00,65.3,46.7,30.12,NE,51,5.0,5.0,51,0.00,,,0.00,789,Wunderground v.1.15,2013-04-23 19:14:00,
2013-04-23 15:19:00,65.7,48.1,30.11,ENE,57,4.0,9.0,53,0.00,,,0.00,779,Wunderground v.1.15,2013-04-23 19:19:00,
2013-04-23 15:24:00,65.9,46.7,30.11,East,99,6.0,8.0,50,0.00,,,0.00,768,Wunderground v.1.15,2013-04-23 19:24:00,
2013-04-23 15:29:00,66.1,46.4,30.11,SE,136,5.0,8.0,49,0.00,,,0.00,756,Wunderground v.1.15,2013-04-23 19:29:00,
2013-04-23 15:34:00,66.1,48.5,30.10,East,93,4.0,9.0,53,0.00,,,0.00,742,Wunderground v.1.15,2013-04-23 19:34:00,
2013-04-23 15:40:00,66.2,47.5,30.10,ENE,68,4.0,4.0,51,0.00,,,0.00,733,Wunderground v.1.15,2013-04-23 19:40:00,
2013-04-23 15:45:00,66.5,47.8,30.10,ENE,74,4.0,8.0,51,0.00,,,0.00,721,Wunderground v.1.15,2013-04-23 19:45:00,
2013-04-23 15:50:00,66.3,46.6,30.09,ESE,115,5.0,5.0,49,0.00,,,0.00,708,Wunderground v.1.15,2013-04-23 19:50:00,
2013-04-23 15:55:00,66.6,47.9,30.09,ENE,77,5.0,12.0,51,0.00,,,0.00,694,Wunderground v.1.15,2013-04-23 19:55:00,
2013-04-23 16:00:00,66.7,49.5,30.09,ENE,77,6.0,6.0,54,0.00,,,0.00,682,Wunderground v.1.15,2013-04-23 20:00:00,
2013-04-23 16:06:00,66.8,49.1,30.08,East,91,6.0,10.0,53,0.00,,,0.00,666,Wunderground v.1.15,2013-04-23 20:06:00,
2013-04-23 16:11:00,67.1,48.4,30.08,SE,127,6.0,7.0,51,0.00,,,0.00,652,Wunderground v.1.15,2013-04-23 20:11:00,
2013-04-23 16:16:00,67.6,49.9,30.08,East,98,6.0,7.0,53,0.00,,,0.00,636,Wunderground v.1.15,2013-04-23 20:16:00,
2013-04-23 16:21:00,67.5,47.1,30.08,ESE,103,6.0,7.0,48,0.00,,,0.00,613,Wunderground v.1.15,2013-04-23 20:21:00,
2013-04-23 16:26:00,67.5,49.3,30.08,ESE,123,6.0,7.0,52,0.00,,,0.00,596,Wunderground v.1.15,2013-04-23 20:26:00,
2013-04-23 16:32:00,67.7,47.3,30.08,ENE,61,3.0,4.0,48,0.00,,,0.00,580,Wunderground v.1.15,2013-04-23 20:32:00,
2013-04-23 16:37:00,67.2,48.5,30.08,East,98,4.0,8.0,51,0.00,,,0.00,570,Wunderground v.1.15,2013-04-23 20:37:00,
2013-04-23 16:42:00,67.4,48.6,30.08,East,94,6.0,6.0,51,0.00,,,0.00,547,Wunderground v.1.15,2013-04-23 20:42:00,
2013-04-23 16:48:00,67.5,47.1,30.08,ESE,102,5.0,8.0,48,0.00,,,0.00,545,Wunderground v.1.15,2013-04-23 20:48:00,
2013-04-23 16:53:00,67.2,47.9,30.07,ESE,104,5.0,6.0,50,0.00,,,0.00,526,Wunderground v.1.15,2013-04-23 20:53:00,
2013-04-23 16:58:00,67.0,46.1,30.08,East,98,3.0,6.0,47,0.00,,,0.00,506,Wunderground v.1.15,2013-04-23 20:58:00,
2013-04-23 17:04:00,67.5,48.2,30.07,ENE,77,3.0,10.0,50,0.00,,,0.00,489,Wunderground v.1.15,2013-04-23 21:04:00,
2013-04-23 17:09:00,67.1,47.3,30.07,NE,42,6.0,10.0,49,0.00,,,0.00,441,Wunderground v.1.15,2013-04-23 21:09:00,
2013-04-23 17:14:00,67.2,47.9,30.07,ENE,57,6.0,8.0,50,0.00,,,0.00,413,Wunderground v.1.15,2013-04-23 21:14:00,
2013-04-23 17:19:00,67.0,48.3,30.07,NE,53,5.0,8.0,51,0.00,,,0.00,448,Wunderground v.1.15,2013-04-23 21:19:00,
2013-04-23 17:24:00,67.0,47.2,30.07,ENE,62,5.0,7.0,49,0.00,,,0.00,422,Wunderground v.1.15,2013-04-23 21:24:00,
2013-04-23 17:30:00,67.2,47.9,30.07,ESE,102,6.0,7.0,50,0.00,,,0.00,410,Wunderground v.1.15,2013-04-23 21:30:00,
2013-04-23 17:35:00,67.3,46.9,30.07,ENE,75,6.0,7.0,48,0.00,,,0.00,378,Wunderground v.1.15,2013-04-23 21:35:00,
2013-04-23 17:40:00,67.0,49.3,30.07,ESE,105,6.0,9.0,53,0.00,,,0.00,327,Wunderground v.1.15,2013-04-23 21:40:00,
2013-04-23 17:46:00,66.6,48.4,30.06,ESE,105,8.0,10.0,52,0.00,,,0.00,309,Wunderground v.1.15,2013-04-23 21:46:00,
2013-04-23 17:51:00,66.2,47.5,30.06,East,88,8.0,9.0,51,0.00,,,0.00,237,Wunderground v.1.15,2013-04-23 21:51:00,
2013-04-23 17:56:00,65.9,48.3,30.06,East,96,6.0,9.0,53,0.00,,,0.00,197,Wunderground v.1.15,2013-04-23 21:56:00,
2013-04-23 18:02:00,65.4,47.8,30.06,ESE,109,6.0,11.0,53,0.00,,,0.00,197,Wunderground v.1.15,2013-04-23 22:02:00,
2013-04-23 18:07:00,65.1,47.5,30.06,East,99,7.0,12.0,53,0.00,,,0.00,167,Wunderground v.1.15,2013-04-23 22:07:00,
2013-04-23 18:12:00,64.9,47.4,30.06,East,90,7.0,9.0,53,0.00,,,0.00,128,Wunderground v.1.15,2013-04-23 22:12:00,
2013-04-23 18:17:00,64.6,47.6,30.06,ESE,103,6.0,9.0,54,0.00,,,0.00,113,Wunderground v.1.15,2013-04-23 22:17:00,
2013-04-23 18:22:00,64.2,47.7,30.06,East,92,7.0,11.0,55,0.00,,,0.00,107,Wunderground v.1.15,2013-04-23 22:22:00,
2013-04-23 18:27:00,63.7,47.7,30.06,ESE,105,8.0,11.0,56,0.00,,,0.00,111,Wunderground v.1.15,2013-04-23 22:27:00,
2013-04-23 18:33:00,63.2,47.2,30.07,ESE,103,7.0,10.0,56,0.00,,,0.00,105,Wunderground v.1.15,2013-04-23 22:33:00,
2013-04-23 18:38:00,62.8,47.8,30.06,East,95,7.0,11.0,58,0.00,,,0.00,121,Wunderground v.1.15,2013-04-23 22:38:00,
2013-04-23 18:44:00,62.6,47.6,30.07,East,88,6.0,11.0,58,0.00,,,0.00,130,Wunderground v.1.15,2013-04-23 22:44:00,
2013-04-23 18:49:00,62.4,47.4,30.07,East,101,6.0,11.0,58,0.00,,,0.00,127,Wunderground v.1.15,2013-04-23 22:49:00,
2013-04-23 18:54:00,62.2,47.7,30.07,SE,126,7.0,8.0,59,0.00,,,0.00,111,Wunderground v.1.15,2013-04-23 22:54:00,
2013-04-23 19:00:00,62.0,47.5,30.07,ESE,107,6.0,6.0,59,0.00,,,0.00,90,Wunderground v.1.15,2013-04-23 23:00:00,
2013-04-23 19:06:00,61.8,47.3,30.07,NE,50,4.0,8.0,59,0.00,,,0.00,72,Wunderground v.1.15,2013-04-23 23:06:00,
2013-04-23 19:11:00,61.4,48.3,30.08,East,99,5.0,6.0,62,0.00,,,0.00,62,Wunderground v.1.15,2013-04-23 23:11:00,
2013-04-23 19:16:00,61.0,47.9,30.08,ENE,77,5.0,6.0,62,0.00,,,0.00,51,Wunderground v.1.15,2013-04-23 23:16:00,
2013-04-23 19:21:00,60.5,47.4,30.08,ENE,62,4.0,7.0,62,0.00,,,0.00,42,Wunderground v.1.15,2013-04-23 23:21:00,
2013-04-23 19:26:00,60.1,47.9,30.08,East,88,4.0,7.0,64,0.00,,,0.00,37,Wunderground v.1.15,2013-04-23 23:26:00,
2013-04-23 19:31:00,59.7,47.9,30.08,ENE,76,5.0,5.0,65,0.00,,,0.00,32,Wunderground v.1.15,2013-04-23 23:31:00,
2013-04-23 19:37:00,59.3,47.5,30.08,ENE,67,4.0,7.0,65,0.00,,,0.00,25,Wunderground v.1.15,2013-04-23 23:37:00,
2013-04-23 19:43:00,59.0,47.2,30.09,NE,46,4.0,6.0,65,0.00,,,0.00,16,Wunderground v.1.15,2013-04-23 23:43:00,
2013-04-23 19:48:00,58.6,47.7,30.09,ENE,76,5.0,8.0,67,0.00,,,0.00,11,Wunderground v.1.15,2013-04-23 23:48:00,
2013-04-23 19:53:00,58.2,47.3,30.09,ENE,76,6.0,8.0,67,0.00,,,0.00,7,Wunderground v.1.15,2013-04-23 23:53:00,
2013-04-23 19:58:00,57.8,46.9,30.09,NE,37,6.0,8.0,67,0.00,,,0.00,5,Wunderground v.1.15,2013-04-23 23:58:00,
2013-04-23 20:04:00,57.4,46.5,30.09,NE,49,5.0,5.0,67,0.00,,,0.00,0,Wunderground v.1.15,2013-04-24 00:04:00,
2013-04-23 20:09:00,57.2,46.7,30.09,ENE,57,4.0,5.0,68,0.00,,,0.00,0,Wunderground v.1.15,2013-04-24 00:09:00,
2013-04-23 20:14:00,57.1,47.0,30.09,ENE,59,3.0,4.0,69,0.00,,,0.00,0,Wunderground v.1.15,2013-04-24 00:14:00,
2013-04-23 20:20:00,56.8,47.5,30.09,ENE,59,2.0,4.0,71,0.00,,,0.00,0,Wunderground v.1.15,2013-04-24 00:20:00,
2013-04-23 20:25:00,56.5,46.4,30.09,NNE,26,3.0,4.0,69,0.00,,,0.00,0,Wunderground v.1.15,2013-04-24 00:25:00,
2013-04-23 20:30:00,56.3,47.0,30.08,NE,35,3.0,3.0,71,0.00,,,0.00,0,Wunderground v.1.15,2013-04-24 00:30:00,
2013-04-23 20:35:00,56.0,47.1,30.09,NE,36,2.0,3.0,72,0.00,,,0.00,0,Wunderground v.1.15,2013-04-24 00:35:00,
2013-04-23 20:41:00,55.8,46.9,30.09,NE,52,1.0,2.0,72,0.00,,,0.00,0,Wunderground v.1.15,2013-04-24 00:41:00,
2013-04-23 20:46:00,55.4,46.9,30.09,NNE,15,2.0,4.0,73,0.00,,,0.00,0,Wunderground v.1.15,2013-04-24 00:46:00,
2013-04-23 20:51:00,55.1,46.6,30.09,North,9,3.0,5.0,73,0.00,,,0.00,0,Wunderground v.1.15,2013-04-24 00:51:00,
2013-04-23 20:56:00,54.8,46.3,30.09,NE,38,3.0,5.0,73,0.00,,,0.00,0,Wunderground v.1.15,2013-04-24 00:56:00,
2013-04-23 21:02:00,54.5,46.0,30.09,NE,43,3.0,5.0,73,0.00,,,0.00,0,Wunderground v.1.15,2013-04-24 01:02:00,
2013-04-23 21:07:00,54.3,46.5,30.09,NE,42,2.0,5.0,75,0.00,,,0.00,0,Wunderground v.1.15,2013-04-24 01:07:00,
2013-04-23 21:12:00,54.1,47.0,30.09,NE,42,2.0,2.0,77,0.00,,,0.00,0,Wunderground v.1.15,2013-04-24 01:12:00,
2013-04-23 21:17:00,53.8,46.8,30.09,North,360,1.0,5.0,77,0.00,,,0.00,0,Wunderground v.1.15,2013-04-24 01:17:00,
2013-04-23 21:22:00,53.4,46.7,30.09,North,360,2.0,2.0,78,0.00,,,0.00,0,Wunderground v.1.15,2013-04-24 01:22:00,
2013-04-23 21:28:00,53.0,46.7,30.09,North,360,1.0,3.0,79,0.00,,,0.00,0,Wunderground v.1.15,2013-04-24 01:28:00,
2013-04-23 21:33:00,52.6,46.3,30.09,North,360,1.0,2.0,79,0.00,,,0.00,0,Wunderground v.1.15,2013-04-24 01:33:00,
2013-04-23 21:38:00,52.2,46.2,30.09,North,360,2.0,4.0,80,0.00,,,0.00,0,Wunderground v.1.15,2013-04-24 01:38:00,
2013-04-23 21:43:00,51.9,46.6,30.09,North,360,2.0,2.0,82,0.00,,,0.00,0,Wunderground v.1.15,2013-04-24 01:43:00,
2013-04-23 21:48:00,51.4,46.4,30.09,NNW,331,3.0,4.0,83,0.00,,,0.00,0,Wunderground v.1.15,2013-04-24 01:48:00,
2013-04-23 21:53:00,51.1,46.1,30.09,NNW,333,3.0,3.0,83,0.00,,,0.00,0,Wunderground v.1.15,2013-04-24 01:53:00,
2013-04-23 21:59:00,50.8,45.8,30.09,North,360,3.0,4.0,83,0.00,,,0.00,0,Wunderground v.1.15,2013-04-24 01:59:00,
2013-04-23 22:04:00,50.5,45.5,30.09,NNE,13,2.0,3.0,83,0.00,,,0.00,0,Wunderground v.1.15,2013-04-24 02:04:00,
2013-04-23 22:10:00,50.2,45.6,30.08,North,11,2.0,2.0,84,0.00,,,0.00,0,Wunderground v.1.15,2013-04-24 02:10:00,
2013-04-23 22:15:00,50.1,45.5,30.08,North,11,2.0,3.0,84,0.00,,,0.00,0,Wunderground v.1.15,2013-04-24 02:15:00,
2013-04-23 22:20:00,49.8,45.5,30.08,North,11,2.0,2.0,85,0.00,,,0.00,0,Wunderground v.1.15,2013-04-24 02:20:00,
2013-04-23 22:25:00,49.5,45.2,30.08,North,11,2.0,3.0,85,0.00,,,0.00,0,Wunderground v.1.15,2013-04-24 02:25:00,
2013-04-23 22:30:00,49.2,45.2,30.07,North,11,2.0,3.0,86,0.00,,,0.00,0,Wunderground v.1.15,2013-04-24 02:30:00,
2013-04-23 22:35:00,49.0,45.3,30.07,North,11,2.0,3.0,87,0.00,,,0.00,0,Wunderground v.1.15,2013-04-24 02:35:00,
2013-04-23 22:41:00,48.8,45.1,30.08,North,5,2.0,4.0,87,0.00,,,0.00,0,Wunderground v.1.15,2013-04-24 02:41:00,
2013-04-23 22:46:00,48.7,45.3,30.08,North,9,3.0,4.0,88,0.00,,,0.00,0,Wunderground v.1.15,2013-04-24 02:46:00,
2013-04-23 22:51:00,48.6,45.2,30.07,North,9,3.0,3.0,88,0.00,,,0.00,0,Wunderground v.1.15,2013-04-24 02:51:00,
2013-04-23 22:56:00,48.5,45.1,30.07,NNE,13,2.0,4.0,88,0.00,,,0.00,0,Wunderground v.1.15,2013-04-24 02:56:00,
2013-04-23 23:01:00,48.4,45.3,30.07,NNE,22,2.0,2.0,89,0.00,,,0.00,0,Wunderground v.1.15,2013-04-24 03:01:00,
2013-04-23 23:06:00,48.1,45.0,30.06,NNE,24,2.0,2.0,89,0.00,,,0.00,0,Wunderground v.1.15,2013-04-24 03:06:00,
2013-04-23 23:12:00,47.8,45.0,30.07,NNE,23,0.0,1.0,90,0.00,,,0.00,0,Wunderground v.1.15,2013-04-24 03:12:00,
2013-04-23 23:17:00,47.6,44.8,30.06,NNE,24,0.0,1.0,90,0.00,,,0.00,0,Wunderground v.1.15,2013-04-24 03:17:00,
2013-04-23 23:23:00,47.3,44.8,30.06,NNE,24,0.0,0.0,91,0.00,,,0.00,0,Wunderground v.1.15,2013-04-24 03:23:00,
2013-04-23 23:29:00,47.0,44.8,30.06,NNE,24,0.0,0.0,92,0.00,,,0.00,0,Wunderground v.1.15,2013-04-24 03:29:00,
2013-04-23 23:35:00,46.8,44.6,30.06,NNE,24,0.0,0.0,92,0.00,,,0.00,0,Wunderground v.1.15,2013-04-24 03:35:00,
2013-04-23 23:41:00,46.5,44.6,30.06,NNE,24,0.0,0.0,93,0.00,,,0.00,0,Wunderground v.1.15,2013-04-24 03:41:00,
2013-04-23 23:47:00,46.2,44.0,30.06,NNE,24,0.0,2.0,92,0.00,,,0.00,0,Wunderground v.1.15,2013-04-24 03:47:00,
2013-04-23 23:52:00,45.9,43.7,30.07,NNE,23,1.0,1.0,92,0.00,,,0.00,0,Wunderground v.1.15,2013-04-24 03:52:00,
2013-04-23 23:57:00,45.7,43.5,30.07,NNE,24,1.0,1.0,92,0.00,,,0.00,0,Wunderground v.1.15,2013-04-24 03:57:00,